Погода в Прибрежном

Россия / Ульяновская область     54°32′05″N   48°56′57″E
темп.,
°C
ветер,
м/с
пор.,
м/с
влажн.,
%
обл.,
%
осадки,
мм/ч
давл.,
гПа
погр.,
м
14 апреля, ср
ср1401:00+9ююв34734 0.0 103143
04:00+8ююв33775 0.0 103125
07:00+8юв347818 0.0 103064
10:00+13юв46715 0.0 1029375
13:00+16юв56645 0.0 1028831
16:00+17юв56594 0.0 1026973
19:00+14юв35714 0.0 102582
22:00+11юв37825 0.0 1024128
15 апреля, чт
чт1501:00+10ююв35882 0.0 102377
04:00+9ююв33870 0.0 102342
07:00+9ююв34860 0.0 102266
10:00+13ююв34650 0.0 1021413
13:00+17ююз35501 0.0 10201092
16:00+17ююз234714 0.0 10191009
19:00+14ссз016315 0.0 101911
22:00+12св22680 0.0 101911
16 апреля, пт
пт1601:00+10всв33750 0.0 101922
04:00+9всв227658 0.0 101918
07:00+8св3780100 0.0 1020119
10:00+13св467051 0.0 1020417
13:00+15св566348 0.0 1021791
16:00+15св565960 0.0 1021899
19:00+12св587069 0.0 1022465
22:00+9св4107310 0.0 1024272
17 апреля, сб
сб1701:00+6св496949 0.0 1024204
04:00+4св487118 0.0 1025164
07:00+4св496952 0.0 1026255
10:00+8св57445 0.0 1026692
13:00+11ссв56355 0.0 10271112
16:00+11ссв56355 0.0 10261183
19:00+9ссв47490 0.0 1027170
22:00+5ссв33590 0.0 102843
18 апреля, вс
вс1801:00+4ссв33680 0.0 102843
04:00+3ссв38815 0.0 1029148
07:00+3ссв38810 0.0 1030256
10:00+6ссв56594 0.0 1030747
13:00+9с56450 0.0 1030995
16:00+7ссв810395 0.0 10301537
19:00+8ссв47535 0.0 1031272
22:00+5св38675 0.0 1032165